Preview of NWS' New Version of Forecast
This preview is not operational and should not be used for support decisions.
Latest weather observations around

Norwood, Norwood Memorial Airport (KOWD)

Using English Units (Switch to International System of Units)
Date/ Time (EDT) Wind (mph) Vis. (mi) Weather Sky Cond. Temp (°F) Rel. Humidity Wind Chill (°F) Heat Index (°F) Pressure Precip. (in)
Air Dwpt 6 hour Altimeter (inHg) Sea level (inHg) 1 hr 3 hr 6 hr
Max Min
Mar 22 19:53 W 14 10 Cloudy BKN032 OVC050 43 34     70% 36   29.17 29.17     0
Mar 22 18:53 W 15 10 Cloudy SCT033 OVC048 43 34     70% 36   29.15 29.15 0    
Mar 22 18:04   9 Light Rain SCT021 OVC032 42 35     76%     29.12   0    
Mar 22 17:53 W 18 10 Light Rain BKN021 OVC032 43 35     73% 35   29.12 29.12 0    
Mar 22 16:53 W 13 10 Light Rain SCT023 OVC029 44 35     70% 38   29.09 29.09 0 0  
Mar 22 16:00 W 16 10 Mostly Cloudy BKN021 BKN026 44 36     73% 37   29.09        
Mar 22 15:53 W 14 10 Cloudy BKN013 OVC021 44 36     73% 37   29.08 29.08      
Mar 22 14:53 W 15 10 Cloudy BKN013 OVC021 43 37     79% 36   29.09 29.09 0    
Mar 22 14:18 WNW 15 8 Light Rain BKN011 BKN016 OVC024 43 38     82% 36   29.1   0    
Mar 22 14:10 WNW 11 10 Light Rain BKN009 BKN016 OVC048 43 38     82% 37   29.1   0    
Mar 22 14:00 WNW 18 7 Cloudy BKN010 BKN018 OVC042 43 38     82% 35   29.11   0    
Mar 22 13:53 WNW 15 8 Light Rain and Fog/Mist BKN008 BKN022 OVC030 42 37     82% 35   29.11 29.11 0   0
Mar 22 13:21 WNW 14 4 Light Rain and Fog/Mist BKN008 BKN022 OVC030 41 36     82% 33   29.12   0    
Mar 22 13:09 WNW 13 7 Light Rain and Fog/Mist BKN010 OVC022 41 36     82% 34   29.13   0    
Mar 22 12:53 W 10 6 Light Rain and Fog/Mist BKN009 BKN015 OVC023 41 37     86% 35   29.14 29.14 0    
Mar 22 11:53 WNW 8 6 Light Rain and Fog/Mist OVC008 41 37     86% 36   29.15 29.15 0    
Mar 22 11:00 NNW 9 4 Light Rain OVC007 41 36     82% 35   29.18   0    
Mar 22 10:53 NNW 6 1.5 Light Rain and Fog/Mist OVC008 41 37     86% 37   29.18 29.18 0 0  
Mar 22 10:10 N 7 1.5 Light Rain OVC009 41 36     82% 36   29.21   0    
Mar 22 09:53 N 10 1.5 Light Rain OVC010 41 36     82% 35   29.22 29.22 0    
Mar 22 09:51 N 13 1.75 Light Rain OVC010 41 36     81% 34   29.22   0    
Mar 22 08:53 NNE 13 3 Light Rain BKN011 OVC016 41 36     82% 34   29.29 29.28 0    
Mar 22 07:53 NE 17 5 Light Rain OVC010 41 36     82% 32   29.34 29.34 0   1
Mar 22 07:50 NE 14 6 Light Rain OVC010 41 36     81% 33   29.34   0    
Mar 22 06:53 NNE 14 7 Light Rain OVC007 41 37     86% 33   29.38 29.37 0    
Mar 22 05:53 NE 13 9 Light Rain OVC006 42 38     85% 35   29.44 29.43 0    
Mar 22 04:53 NE 15 3 Rain BKN006 OVC028 42 37     82% 35   29.52 29.52 0 0  
Mar 22 03:53 NE 13 5 Light Rain and Fog/Mist OVC005 42 38     85% 35   29.59 29.58 0    
Mar 22 02:53 NE 10 8 Cloudy OVC005 41 37     86% 35   29.63 29.63 0    
Mar 22 01:53 NE 8 7 Light Rain OVC007 42 37     82% 37   29.72 29.72 0   0
Mar 22 01:29 NNE 8 5 Light Rain OVC009 42 37     82% 37   29.73   0    
Mar 22 00:53 NNE 6 4 Light Rain OVC011 42 37     82% 38   29.78 29.77 0    
Mar 21 23:53 E 9 10 Cloudy OVC013 43 35     73% 38   29.82 29.82      
Mar 21 23:37 ENE 9 10 Cloudy OVC013 43 35     73% 38   29.82        
Mar 21 22:53 ENE 6 10 Cloudy BKN017 OVC110 42 34     73% 38   29.87 29.86      
Mar 21 21:53 E 6 10 Cloudy OVC018 43 33     68% 39   29.92 29.92      
Mar 21 21:31 E 10 10 Mostly Cloudy BKN019 43 33     68% 37   29.93        
Mar 21 20:53 NE 9 10 Clear CLR 43 33     68% 38   29.94 29.93      
Mar 21 19:53 ENE 8 10 Mostly Clear FEW120 45 33     63% 41   29.97 29.97      
Mar 21 18:53 SE 3 10 Clear CLR 47 33     58% 46   30 30.01      
Mar 21 17:53 SSE 8 10 Clear CLR 49 32     52% 45   30.03 30.03      
Mar 21 16:53 S 10 10 Clear CLR 50 27     41%     30.04 30.04      
Mar 21 15:53 SSE 8 10 Cloudy OVC060 50 25     37%     30.07 30.07      
Mar 21 14:53 S 13 10 Cloudy OVC055 52 27     38%     30.1 30.1      
Mar 21 13:53 S 9 10 Cloudy BKN055 OVC070 53 28     38%     30.11 30.11      
Mar 21 12:53 S 16 10 Cloudy OVC055 51 24     35%     30.15 30.15      
Mar 21 11:53 SSE 10 10 Cloudy OVC050 52 27     38%     30.16 30.16      
Mar 21 10:53 SSE 10 10 Cloudy OVC055 49 28     44% 45   30.2 30.2      
Mar 21 09:53 S 10 10 Cloudy OVC060 46 29     51% 41   30.22 30.22      
Mar 21 08:53 5 10 Partly Cloudy SCT110 43 29     57% 40   30.23 30.23      
Mar 21 07:53 3 10 Mostly Cloudy BKN120 37 31     78% 35   30.24 30.24      
Mar 21 06:53 Calm 7 Mostly Clear FEW110 28 25     88%     30.26 30.26      
Mar 21 05:53 Calm 10 Clear CLR 27 23     85%     30.26 30.26      
Mar 21 04:53 Calm 10 Clear CLR 29 24     82%     30.25 30.25      
Mar 21 03:53 Calm 9 Cloudy OVC120 31 26     82%     30.26 30.26      
Mar 21 02:53 Calm 10 Clear CLR 34 29     82%     30.29 30.29      
Mar 21 01:53 S 5 10 Clear CLR 36 30     79% 32   30.3 30.29      
Mar 21 00:53 S 5 10 Clear CLR 35 29     78% 31   30.31 30.3      
Mar 20 23:53 S 3 10 Clear CLR 39 29     67% 37   30.31 30.31      
Mar 20 22:53 S 6 10 Clear CLR 40 27     60% 36   30.32 30.32      
Mar 20 21:53 SSW 6 10 Clear CLR 41 25     53% 37   30.32 30.32      
Mar 20 20:53 SSE 7 10 Clear CLR 41 25     53% 36   30.32 30.32      
Mar 20 19:53 SSE 9 10 Clear CLR 43 26     51% 38   30.3 30.3      
Mar 20 18:53 S 14 10 Clear CLR 46 26     45% 40   30.28 30.29      
Mar 20 17:53 S 13 10 Clear CLR 48 29     47% 43   30.27 30.27      
Mar 20 16:53 S 16 10 Mostly Clear FEW080 50 29     44%     30.28 30.28      
Mar 20 15:53 S 14 10 Clear CLR 52 25     35%     30.29 30.29      
Mar 20 14:53 S 11 10 Mostly Cloudy BKN075 51 20     29%     30.3 30.3      
Mar 20 13:53 S 13 10 Mostly Cloudy BKN075 52 18     26%     30.32 30.32      
Mar 20 12:53 5 10 Clear CLR 51 18     27%     30.36 30.36      
Mar 20 11:53 5 10 Clear CLR 49 18     29% 47   30.38 30.38      
Mar 20 09:53 Calm 10 Clear CLR 42 19     39%     30.42 30.42      
Mar 20 08:53 Calm 10 Clear CLR 35 24     64%     30.43 30.43      
Mar 20 07:53 Calm 10 Clear CLR 28 23     81%     30.43 30.43      
Mar 20 06:53 Calm 10 Clear CLR 23 17     78%     30.42 30.42      
Mar 20 05:53 Calm 10 Clear CLR 23 17     78%     30.42 30.42      
Mar 20 04:53 Calm 10 Clear CLR 23 17     78%     30.4 30.4      
Mar 20 03:53 Calm 10 Clear CLR 24 17     74%     30.4 30.4      
Mar 20 02:53 Calm 10 Clear CLR 24 18     77%     30.41 30.41      
Mar 20 01:53 Calm 10 Clear CLR 25 19     78%     30.41 30.41      
Mar 20 00:53 Calm 10 Clear CLR 27 19     72%     30.41 30.41      
Mar 19 23:53 Calm 10 Clear CLR 28 18     65%     30.4 30.4      
Mar 19 22:53 Calm 10 Clear CLR 29 16     58%     30.41 30.41      
Mar 19 21:53 Calm 10 Clear CLR 30 17     58%     30.4 30.4      
Mar 19 20:53 Calm 10 Clear CLR 33 18     53%     30.39 30.39      
May 15 06:53 S 6 3 Fog/Mist OVC003 59 57     93%     29.85 29.85      
May 15 04:53 S 5 9 Clear   57 54     89%     29.86 29.85      
May 14 23:53 S 5 10 Clear CLR 57 53     87%     29.9 29.9      
May 14 13:53 SSW 9 10 Partly Cloudy SCT035 70 53     55%     29.93 29.93      
May 14 06:19 SSE 5 10 Cloudy BKN007 OVC030 52 49     89%     30.02        
May 13 23:53 SSE 5 10 Clear CLR 50 47     89% 48   30.08 30.07      
May 13 13:53 NNE 6 10 Mostly Cloudy BKN021 BKN026 60 49     67%     30.18 30.18      
May 13 00:53 NNE 5 6 Fog/Mist OVC006 52 49     89%     30.11 30.11      
May 12 14:15 N 3 10 Cloudy BKN009 OVC013 53 50     89%     30.14        
May 11 20:53 SSE 3 10 Clear CLR 54 32     43%     30.07 30.07      
May 11 12:53   10 Clear CLR 68 35     30%     29.96 29.96      
Jun 12 05:53 Calm 10 Clear CLR 69 65     87%     29.96 29.96      
Jun 10 22:53 SSW 7 10 Clear   73 56     55%   73 29.99 29.99      
Jun 10 15:53 S 13 10 Clear CLR 83 55     38%   82 29.91 29.91      
Jun 08 08:53 Calm 10 Clear CLR 66 55     68%     30.04 30.04      
Jun 07 22:53 Calm 10 Clear CLR 52 50     93%     30.02 30.02      
Jun 07 11:53 NE 8 10 Cloudy OVC075 64 50     60%     29.96 29.96      
Jun 06 13:35 NNE 14 6 Light Rain and Fog/Mist SCT009 SCT018 OVC039 49 47     93% 44   29.83   0    
Jun 06 11:53 NE 11 1.25 Light Rain and Fog/Mist BKN007 OVC014 50 48     93% 46   29.84 29.83 0    
Notice The following observation data may not be complete
Jun 06 05:05   1.75 Fog/Mist OVC006          %              
Jun 05 21:53 ENE 9 2.5 Light Rain and Fog/Mist OVC006 54 53     97%     29.84 29.83 0    
Jun 05 18:53 ENE 8 1.75 Fog/Mist OVC006 55 53     93%     29.83 29.82